Weather reports worldwide

Advertisment
Baltasound, United Kingdom (3002): temperature & dewpoint: 15.02.2018 19:00:00 - 21.02.2018 19:00:00 (GMT)Baltasound, United Kingdom (3002): temperature -20cm: 15.02.2018 19:00:00 - 21.02.2018 19:00:00 (GMT)Baltasound, United Kingdom (3002): wind speed & gusts: 15.02.2018 19:00:00 - 21.02.2018 19:00:00 (GMT)Baltasound, United Kingdom (3002): wind direction: 15.02.2018 19:00:00 - 21.02.2018 19:00:00 (GMT)Baltasound, United Kingdom (3002): reduced air pressure: 15.02.2018 19:00:00 - 21.02.2018 19:00:00 (GMT)Baltasound, United Kingdom (3002): visibility: 15.02.2018 19:00:00 - 21.02.2018 19:00:00 (GMT)Baltasound, United Kingdom (3002): precipitation: 15.02.2018 19:00:00 - 21.02.2018 19:00:00 (GMT)
Date & Time tt [°C] td [°C] tt -20cm [°C] ff [km/h] ff [kn] fx [km/h] fx [kn] dd ppp [hPa] vv [km] rr [mm]
21.02.2018 19:00:00 2,3 0,9 - 15 8 - - SSW 1027,5 23 0,0
21.02.2018 18:00:00 2,6 1,1 - 16 9 - - S 1027,3 20 0,0
21.02.2018 17:00:00 3,2 0,6 - 13 7 - - S 1027,0 20 0,0
21.02.2018 16:00:00 6,2 2,2 - 0 0 - - N 1027,0 21 0,0
21.02.2018 15:00:00 7,1 0,7 - 4 2 - - WNW 1027,2 21 0,0
21.02.2018 14:00:00 7,2 0,4 - 8 4 - - W 1027,5 28 0,0
21.02.2018 13:00:00 7,6 1,6 - 0 0 - - N 1027,7 19 0,0
21.02.2018 12:00:00 6,2 2,0 - 8 4 - - W 1028,0 14 0,0
21.02.2018 11:00:00 7,4 2,0 - 0 0 - - N 1027,9 16 0,0
21.02.2018 10:00:00 4,8 2,1 - 4 2 - - W 1028,0 45 0,0
21.02.2018 09:00:00 2,5 1,2 3,7 8 4 - - W 1027,9 16 0,0
21.02.2018 08:00:00 1,2 -0,1 - 8 4 - - W 1027,7 13 0,0
21.02.2018 07:00:00 0,6 -0,8 - 9 5 - - W 1027,5 10 0,0
21.02.2018 06:00:00 0,8 -0,6 - 8 4 - - W 1027,1 10 0,0
21.02.2018 05:00:00 1,9 0,1 - 9 5 - - WNW 1026,9 11 0,0
21.02.2018 04:00:00 1,9 0,2 - 11 6 - - W 1026,9 14 0,0
21.02.2018 03:00:00 4,4 2,7 - 22 12 - - WNW 1026,8 16 0,0
21.02.2018 02:00:00 3,0 0,4 - 11 6 - - WNW 1026,7 13 0,0
21.02.2018 01:00:00 3,8 1,2 - 13 7 - - NW 1026,6 12 0,0
21.02.2018 00:00:00 4,0 1,0 - 13 7 - - WNW 1026,6 14 0,0
20.02.2018 23:00:00 3,6 0,4 - 13 7 - - NW 1026,0 12 0,0
20.02.2018 22:00:00 5,0 1,2 - 21 11 - - WNW 1025,4 14 0,0
20.02.2018 21:00:00 4,9 1,4 - 21 11 - - WNW 1025,3 13 0,0
20.02.2018 20:00:00 5,3 1,6 - 21 11 - - WNW 1024,9 15 0,0
20.02.2018 19:00:00 5,2 1,7 - 21 11 - - WNW 1024,5 13 0,0
20.02.2018 18:00:00 5,9 2,7 - 24 13 - - WNW 1023,8 10 0,0
20.02.2018 17:00:00 6,0 3,4 - 22 12 - - WNW 1023,1 10 0,0
20.02.2018 16:00:00 6,8 4,3 - 22 12 - - WNW 1022,4 11 0,0
20.02.2018 15:00:00 7,3 4,5 - 22 12 - - WNW 1021,9 12 0,0
20.02.2018 14:00:00 8,0 5,7 - 24 13 - - WNW 1021,5 13 0,0
20.02.2018 13:00:00 7,8 6,3 - 18 10 - - W 1021,3 11 0,4
20.02.2018 12:00:00 7,3 6,4 - 18 10 - - SW 1020,9 18 0,0
20.02.2018 11:00:00 6,0 5,6 - 21 11 - - S 1020,1 27 0,0
20.02.2018 10:00:00 5,5 5,1 - 18 10 - - S 1019,8 13 0,0
20.02.2018 09:00:00 5,5 5,1 3,4 15 8 - - SSW 1019,2 12 0,4
20.02.2018 08:00:00 5,4 4,9 - 13 7 - - WSW 1018,5 11 0,4
20.02.2018 07:00:00 5,1 4,6 - 11 6 - - W 1017,0 15 0,0
20.02.2018 06:00:00 5,6 5,0 - 16 9 54 29 S 1015,6 14 0,2
20.02.2018 05:00:00 5,5 4,9 - 46 25 59 32 SSE 1015,4 5 0,4
20.02.2018 04:00:00 5,6 5,1 - 35 19 54 29 SSE 1016,0 6 1,0
20.02.2018 03:00:00 5,3 4,7 - 41 22 59 32 SSE 1016,2 5 0,4
20.02.2018 02:00:00 5,2 4,4 - 44 24 59 32 SSE 1016,5 7 0,2
20.02.2018 01:00:00 5,3 4,3 - 39 21 59 32 S 1016,5 7 0,8
20.02.2018 00:00:00 5,3 4,2 - 44 24 61 33 SSE 1016,7 10 0,6
19.02.2018 23:00:00 5,2 4,4 - 41 22 63 34 SSE 1017,0 5 0,2
19.02.2018 22:00:00 5,5 4,0 - 41 22 59 32 SSE 1017,1 13 0,4
19.02.2018 21:00:00 5,9 4,6 - 39 21 54 29 SSE 1017,2 9 0,6
19.02.2018 20:00:00 6,2 3,9 - 37 20 50 27 SSE 1017,5 21 0,0
19.02.2018 19:00:00 5,9 3,4 - 37 20 50 27 SSE 1017,7 26 0,0
19.02.2018 18:00:00 5,8 3,0 - 37 20 50 27 SE 1018,0 27 0,0
19.02.2018 17:00:00 5,8 2,9 - 35 19 46 25 SE 1018,0 27 0,0
19.02.2018 16:00:00 6,0 3,2 - 37 20 48 26 SE 1018,4 25 0,0
19.02.2018 15:00:00 6,1 3,7 - 35 19 46 25 SE 1018,6 29 0,0
19.02.2018 14:00:00 6,9 4,5 - 35 19 - - SE 1018,4 26 0,0
19.02.2018 13:00:00 6,5 3,8 - 34 18 - - SE 1018,3 30 0,0
19.02.2018 12:00:00 6,3 3,9 - 31 17 - - SE 1018,1 35 0,0
19.02.2018 11:00:00 6,1 3,6 - 31 17 - - SE 1018,1 40 0,0
19.02.2018 10:00:00 6,0 3,0 - 35 19 46 25 SE 1017,9 35 0,0
19.02.2018 09:00:00 5,8 3,2 3,0 29 16 46 25 SE 1018,2 40 0,0
19.02.2018 08:00:00 5,2 2,7 - 26 14 - - SE 1017,9 45 0,0
19.02.2018 07:00:00 5,1 2,9 - 26 14 - - SE 1017,6 35 0,2
19.02.2018 06:00:00 4,9 3,0 - 28 15 - - SE 1017,2 20 0,0
19.02.2018 05:00:00 4,7 2,2 - 24 13 - - ESE 1017,0 45 0,0
19.02.2018 04:00:00 4,7 2,6 - 22 12 - - ESE 1016,9 40 0,0
19.02.2018 03:00:00 4,6 2,5 - 24 13 - - SE 1016,8 35 0,0
19.02.2018 02:00:00 4,4 2,7 - 16 9 - - SE 1016,9 40 0,0
19.02.2018 01:00:00 3,7 1,7 - 15 8 - - SE 1016,9 45 0,0
19.02.2018 00:00:00 3,6 1,9 - 18 10 - - SE 1017,1 50 0,0
18.02.2018 23:00:00 3,1 1,7 - 16 9 - - SSE 1016,9 45 0,0
18.02.2018 22:00:00 1,6 0,6 - 13 7 - - SSE 1017,1 45 0,0
18.02.2018 21:00:00 1,3 0,8 - 9 5 - - SSE 1017,0 30 0,0
18.02.2018 20:00:00 1,6 1,1 - 2 1 - - ESE 1016,8 35 0,0
18.02.2018 19:00:00 0,6 -0,3 - 0 0 - - N 1016,9 50 0,0
18.02.2018 18:00:00 2,8 1,9 - 11 6 - - S 1016,9 35 0,0
18.02.2018 17:00:00 2,0 0,7 - 11 6 - - SSE 1016,8 50 0,0
18.02.2018 16:00:00 4,9 3,2 - 13 7 - - S 1016,7 26 0,0
18.02.2018 15:00:00 5,9 3,0 - 9 5 - - S 1016,8 45 0,0
18.02.2018 14:00:00 6,3 3,2 - 9 5 - - SSW 1016,8 26 0,0
18.02.2018 13:00:00 6,0 3,0 - 11 6 - - SW 1016,8 35 0,0
18.02.2018 12:00:00 4,7 2,9 - 13 7 - - SW 1016,7 50 0,0
18.02.2018 11:00:00 4,5 3,0 - 13 7 - - SW 1016,3 26 0,0
18.02.2018 10:00:00 3,7 2,2 - 11 6 - - WSW 1015,9 45 0,0
18.02.2018 09:00:00 2,4 1,5 3,2 21 11 - - SW 1015,7 45 0,0
18.02.2018 08:00:00 2,0 0,9 - 15 8 - - SSW 1015,3 35 0,0
18.02.2018 07:00:00 1,4 0,1 - 13 7 50 27 SSW 1015,5 50 0,8
18.02.2018 06:00:00 1,6 -0,5 - 16 9 - - WSW 1015,1 30 0,0
18.02.2018 05:00:00 2,7 0,6 - 22 12 - - WSW 1014,6 35 0,0
18.02.2018 04:00:00 3,2 0,6 - 21 11 - - W 1014,1 35 0,0
18.02.2018 03:00:00 1,9 -0,1 - 16 9 - - WSW 1013,8 35 0,0
18.02.2018 02:00:00 3,1 1,3 - 18 10 - - WSW 1013,5 40 0,0
18.02.2018 01:00:00 2,3 1,4 - 24 13 - - SW 1013,0 45 0,4
18.02.2018 00:00:00 1,3 0,4 - 16 9 - - SW 1012,6 50 0,6
17.02.2018 23:00:00 2,9 2,0 - 26 14 - - WSW 1012,5 4,7 0,6
17.02.2018 22:00:00 3,0 2,3 - 16 9 - - SW 1011,7 50 0,4
17.02.2018 21:00:00 2,4 1,4 - 18 10 - - SSW 1011,3 35 0,0
17.02.2018 20:00:00 2,5 1,5 - 16 9 - - SSW 1011,0 50 0,6
17.02.2018 19:00:00 3,5 2,4 - 26 14 - - SSW 1010,8 30 0,2
17.02.2018 18:00:00 2,9 1,6 - 24 13 - - SW 1010,4 50 0,0
17.02.2018 17:00:00 3,9 2,5 - 22 12 - - SW 1009,9 45 0,2
17.02.2018 16:00:00 5,4 3,2 - 24 13 - - SSW 1009,6 26 0,0
17.02.2018 15:00:00 5,4 3,7 - 26 14 - - SW 1009,3 15 0,2
17.02.2018 14:00:00 6,4 4,2 - 22 12 - - SSW 1009,4 26 0,0
17.02.2018 13:00:00 7,6 4,7 - 24 13 - - SSW 1009,6 30 0,0
17.02.2018 12:00:00 6,7 4,1 - 28 15 - - SSW 1009,5 30 0,0
17.02.2018 11:00:00 6,6 4,7 - 24 13 - - S 1009,5 30 0,0
17.02.2018 10:00:00 5,3 4,0 - 22 12 - - SSW 1009,3 20 0,0
17.02.2018 09:00:00 4,6 3,5 3,0 24 13 - - S 1009,3 16 0,0
17.02.2018 08:00:00 4,7 3,6 - 24 13 - - S 1009,0 18 0,0
17.02.2018 07:00:00 5,0 3,8 - 28 15 - - S 1009,0 15 0,0
17.02.2018 06:00:00 5,6 4,3 - 29 16 46 25 S 1008,9 18 0,4
17.02.2018 05:00:00 5,5 4,2 - 26 14 48 26 S 1009,2 9 0,2
17.02.2018 04:00:00 5,8 3,4 - 34 18 48 26 S 1009,6 21 0,0
17.02.2018 03:00:00 5,9 4,0 - 29 16 - - S 1010,2 18 0,0
17.02.2018 02:00:00 5,9 3,8 - 29 16 - - SSE 1011,2 17 0,0
17.02.2018 01:00:00 5,6 3,3 - 28 15 - - SSE 1011,7 25 0,0
17.02.2018 00:00:00 4,9 2,9 - 24 13 - - SSE 1012,3 23 0,0
16.02.2018 23:00:00 3,4 2,2 - 13 7 - - S 1012,6 19 0,0
16.02.2018 22:00:00 3,1 1,9 - 18 10 - - S 1012,9 23 0,0
16.02.2018 21:00:00 2,5 1,2 - 16 9 - - SSW 1013,0 27 0,0
16.02.2018 20:00:00 3,2 1,8 - 26 14 - - SSW 1013,0 26 0,0
16.02.2018 19:00:00 3,0 1,6 - 24 13 - - S 1012,7 23 0,0
16.02.2018 18:00:00 2,4 1,1 - 16 9 - - SSW 1012,3 24 0,0
16.02.2018 17:00:00 3,1 1,3 - 21 11 - - SW 1011,8 45 0,0
16.02.2018 16:00:00 3,2 1,2 - 16 9 48 26 SW 1011,2 35 0,0
16.02.2018 15:00:00 4,6 1,8 - 22 12 - - SW 1011,0 40 0,0
16.02.2018 14:00:00 6,0 2,8 - 16 9 - - SW 1010,4 29 0,0
16.02.2018 13:00:00 6,1 2,8 - 28 15 - - SW 1010,0 23 0,0
16.02.2018 12:00:00 5,9 2,4 - 29 16 - - WSW 1009,2 21 0,0
16.02.2018 11:00:00 5,4 3,2 - 22 12 - - SW 1008,6 18 0,0
16.02.2018 10:00:00 4,8 2,4 - 18 10 - - SW 1007,6 16 0,2
16.02.2018 09:00:00 4,3 1,5 3,0 18 10 - - SW 1006,7 12 0,2
16.02.2018 08:00:00 2,3 0,6 - 18 10 - - SW 1005,5 13 0,0
16.02.2018 07:00:00 3,4 1,3 - 26 14 - - SW 1004,2 13 0,0
16.02.2018 06:00:00 3,7 1,4 - 24 13 46 25 SW 1003,5 13 0,0
16.02.2018 05:00:00 3,7 1,4 - 21 11 - - SW 1002,4 12 0,2
16.02.2018 04:00:00 5,3 2,5 - 22 12 - - WSW 1001,4 9 0,0
16.02.2018 03:00:00 5,7 1,9 - 34 18 46 25 WSW 1000,5 13 0,0
16.02.2018 02:00:00 5,6 3,1 - 29 16 - - WSW 999,2 10 0,0
16.02.2018 01:00:00 5,1 2,9 - 31 17 55 30 WSW 998,0 12 0,2
16.02.2018 00:00:00 5,4 3,0 - 29 16 - - WSW 996,7 12 0,2
15.02.2018 23:00:00 3,6 2,3 - 21 11 - - SW 995,4 20 0,0
15.02.2018 22:00:00 4,4 3,5 - 18 10 - - SW 994,6 3,3 0,6
15.02.2018 21:00:00 4,7 3,1 - 37 20 54 29 WSW 993,5 6 0,4
15.02.2018 20:00:00 5,6 4,4 - 28 15 - - SSW 992,0 12 0,0
15.02.2018 19:00:00 5,0 4,0 - 34 18 50 27 S 991,2 11 0,4

tt = temperature
td = dewpoint
tt -20cm = temperature -20cm
ff = wind speed
fx = gusts
dd = wind direction
ppp = reduced air pressure
vv = visibility
rr = precipitation

Next stations